INTELSAT 35E (IS-35E) (42818 NORAD) Tracking and Keplerian Element Data

This shows tracking and keplerian element data for the satellite.

Feedback or suggestion? Click here.




ElementValue
Catalog42818
NameINTELSAT 35E (IS-35E)
Epoch Orbit1918
Epoch Day269.37676795
Epoch Year2022
RAAN195.4899
Inclination0.0091
Eccentricity0.0001688
Argument of Perigee359.3369
Mean Anonmoly271.4855
Mean Motion1.00272103
Decay Rate-2.35E-06
L11 42818U 17041A 22269.37676795 -.00000235 00000+0 00000+0 0 9996
L22 42818 0.0091 195.4899 0001688 359.3369 271.4855 1.00272103 19188

Live tracking and technical data element details for INTELSAT 35E (IS-35E) (NORAD 42818). INTELSAT 35E (IS-35E) can be tracked NOW for your location showing map with azimuth and elevation plus other details from your city location.

Track the satellite on the map from your city or location and see movement details for azimuth, elevation, latitude, longitude, range, height, and movement on the map or in text.







IsCatalogInMostPopularTable: catalog: 42818, numindb: 614
Update: records affected: 1



GetName: 42818 INTELSAT 35E (IS-35E)

Hit Count: updated at: Wed, 28 Sep 2022 22:03:20 GMT